Regional Weather Roundup
Issued by NWS Grand Forks, ND

Home | Current Version | Previous Version | Text Only | Print | Product List | Glossary Off
Versions: 1 2 3 4 5 6 7 8 9 10 11 12 13 14 15 16 17 18 19 20 21 22 23 24 25 26 27 28 29 30 31 32 33 34 35 36 37 38 39 40 41 42 43 44 45 46 47 48 49 50

000
ASUS43 KFGF 181331
RWRFGF
PRAIRIE TO PINES  WEATHER ROUNDUP
NATIONAL WEATHER SERVICE EASTERN NORTH DAKOTA/GRAND FORKS ND
800 AM CDT SAT APR 18 2015

 **SATELLITE DATA USED TO AUGMENT SKY COVER AT AUTOMATED STATIONS**
 *****  WEATHER ACROSS EASTERN NORTH DAKOTA  *****

CITY           SKY/WX    TMP DP  RH WIND       PRES   REMARKS
GRAND FORKS    MOSUNNY   39  31  72 E9        30.14S
GRAND FRKS AFB SUNNY     36  29  75 SE5       30.14S
GRAND FRKS NWS   N/A     39 N/A N/A E12         N/A
DEVILS LAKE    SUNNY     39  30  70 SE12      30.09S
FARGO          MOSUNNY   40  26  57 CALM      30.11R
WAHPETON ARPT  PTSUNNY   50  27  40 E9        30.08F
$$

 ***** WEATHER ACROSS CENTRAL AND WESTERN NORTH DAKOTA  *****

CITY           SKY/WX    TMP DP  RH WIND       PRES   REMARKS
BISMARCK       SUNNY     38  28  67 E7        30.06S
MINOT          FAIR      35  27  72 SE6       30.04F
JAMESTOWN      MOSUNNY   40  29  64 E7        30.07S
MINOT AFB      SUNNY     33  30  86 SE6       30.03F
GARRISON         N/A     39  31  72 E7        30.04F
WILLISTON      CLEAR     43  29  57 CALM      29.98F
DICKINSON      PTCLDY    38  28  67 SE3       29.99S
HETTINGER      CLEAR     37  30  75 E3        30.02S
$$

 *****  OTHER AIRPORT OBSERVATIONS IN OUR AREA  *****

CITY           SKY/WX    TMP DP  RH WIND       PRES   REMARKS
WALHALLA       FAIR      37  36  93 S13       30.16S
GRAFTON AIRPOR FAIR      39  32  75 SE9       30.15F
VALLEY CITY AR FAIR      41  28  60 E10       30.08F
CANDO          FAIR      36  28  75 SE9       30.11S
CAVALIER APRT  FAIR      37  30  75 SE6       30.15F
GWINNER        SUNNY     46  27  46 NE12      30.08S
ROLLA          FAIR      36  30  80 SE13      30.10S
 ***** THE ABOVE OBSERVATIONS ARE NON NWS ARE NOT QUALITY
       CONTROLLED AND MAY MIS-REPORT RAIN FOR SNOW...
$$

  *****  WEATHER ACROSS NORTHERN MINNESOTA  *****

CITY           SKY/WX    TMP DP  RH WIND       PRES   REMARKS
FLAG ISLAND    SUNNY     39  30  70 SE7       30.20F
WARROAD        SUNNY     37  34  87 SE10      30.20F
ROSEAU         SUNNY     39  32  75 SE8       30.19F
HALLOCK        SUNNY     41  30  65 E13G18    30.15F
THF RVR FALLS  SUNNY     39  30  70 E14       30.15F
BAUDETTE       SUNNY     38  31  76 SE9       30.21S
WASKISH        SUNNY     39  34  81 E13       30.19F
CROOKSTON      SUNNY     43  30  61 SE15      30.14F
STEPHEN NDAWN    N/A     43  32  65 SE16        N/A
GREENBUSH NDAW   N/A     39  32  75 SE12        N/A
$$
  *****  WEATHER ACROSS CENTRAL AND WEST MINNESOTA  *****

CITY           SKY/WX    TMP DP  RH WIND       PRES   REMARKS
FOSSTON        SUNNY     43  30  61 E12G17    30.13F
BEMIDJI        SUNNY     40  32  72 E13       30.16S
PARK RAPIDS    SUNNY     44  30  57 E13       30.13S
ELBOW LAKE     FAIR      49  31  48 E16G23    30.06F
WADENA         SUNNY     43  30  61 E10       30.11F
DETROIT LAKES  MOSUNNY   46  32  57 E9G16     30.12S
MOORHEAD       MOSUNNY   43  27  52 CALM      30.11S
FERGUS FALLS   MOSUNNY   48  25  40 E8        30.09F
MORRIS MN      MOSUNNY   52  28  40 E21       30.05S
STAPLES        SUNNY     45  30  57 E7        30.12F
$$
  *****  WEATHER ELSEWHERE ACROSS MINNESOTA  *****

CITY           SKY/WX    TMP DP  RH WIND       PRES   REMARKS
DULUTH         SUNNY     40  31  70 E16G28    30.21R
INTRNTL FALLS  SUNNY     37  32  82 E10       30.22F
ELY            SUNNY     37  30  75 E5        30.23S
CLOQUET        SUNNY     41  30  65 E15G26    30.20R
WHEATON        PTSUNNY   45  28  53 CALM      30.09S
BRAINERD       SUNNY     44  30  57 E12       30.15R
HIBBING        SUNNY     39  29  67 E12       30.20S
ALEXANDRIA     SUNNY     48  28  46 E13       30.09F
SAINT CLOUD    SUNNY     48  30  49 E10       30.11R
MINNEAPOLIS    PTSUNNY   53  30  41 E13       30.10R
$$

  *****  WEATHER ACROSS SOUTH DAKOTA  *****

CITY           SKY/WX    TMP DP  RH WIND       PRES   REMARKS
SIOUX FALLS    CLOUDY    54  36  50 NE10      30.00F
BROOKINGS      PTSUNNY   55  23  28 E12       30.02F
WATERTOWN      MOSUNNY   50  27  40 E8        30.04R
HURON          PTSUNNY   52  30  43 NE5       30.00R
SISSETON         N/A     44  27  51 CALM      30.07S
ABERDEEN       CLOUDY    44  28  53 NE7       30.03F
MITCHELL       CLOUDY    57  28  33 E8        29.98F
PIERRE         CLOUDY    51  32  48 NE6       29.98S
MOBRIDGE       CLOUDY    51  26  37 E6        29.99S
RAPID CITY     CLOUDY    47  45  93 NW5       30.00F
$$

  *****  SOME WEATHER IN NEARBY STATES *****

CITY           SKY/WX    TMP DP  RH WIND       PRES   REMARKS
GLASGOW MT     CLEAR     41  29  62 SE10      29.92S
GREAT FALLS MT PTCLDY    42  30  62 N16       30.08R
CHEYENNE WY    CLOUDY    35  32  88 NW9       29.94F
SCOTTSBLUFF NE CLOUDY    43  32  65 W9        29.93F
OMAHA NE       LGT RAIN  63  56  78 E13       29.92F
DES MOINES IA  CLOUDY    62  57  83 NE13      29.97F
DAVENPORT IA   SUNNY     57  49  74 E6        30.02R
CHICAGO IL     PTSUNNY   64  46  52 NE8       30.04S
EAU CLAIRE WI  PTSUNNY   51  32  48 E10       30.12R
LA CROSSE WI   SUNNY     58  33  39 E12G18    30.08S
$$

  *****  SOME NATIONAL WEATHER *****

CITY           SKY/WX    TMP DP  RH WIND       PRES   REMARKS
LA GUARDIA NY  MOSUNNY   62  45  53 NW5       30.00R
RALEIGH NC     PTSUNNY   66  64  93 W3        30.00F
ATLANTA GA     CLOUDY    64  61  88 NE8       30.00R FOG
NEW ORLEANS LA LGT RAIN  71  68  90 CALM      29.95R FOG
OKLAHOMA CITY  MOSUNNY   58  53  84 CALM      29.91R
ALBUQUERQUE NM CLOUDY    39  26  59 CALM      30.00R
SALT LAKE CITY PTCLDY    42  36  79 SE7       30.02S
LOS ANGELES CA CLEAR     56  47  71 CALM      30.00S
BOISE ID       CLEAR     45  32  60 W3        30.08S
SEATTLE WA     CLEAR     47  38  71 N10       30.35R
$$

*** WEATHER ACROSS MANITOBA...SASKATCHEWAN AND ONTARIO ***
                ***ONTARIO***

CITY           SKY/WX    TMP DP  RH WIND       PRES   REMARKS
GERALDTON      PTSUNNY   34  28  80 N6        30.28R
THUNDER BAY    SUNNY     39  32  75 W3        30.28R
SIOUX LOOKOUT  MOSUNNY   34  32  93 CALM      30.26S
TORONTO        MOSUNNY   59  45  58 W16       29.96S
BIG TROUT LK   FOG       28  28 100 SW3       30.27R VSB 1/8
PICKLE LAKE    MOSUNNY   32  30  93 W6        30.27R
DRYDEN         SUNNY     34  30  86 CALM      30.25S
KENORA         SUNNY     37  32  81 SE6       30.23R
$$
                *** MANITOBA***

CITY           SKY/WX    TMP DP  RH WIND       PRES   REMARKS
BRANDON        SUNNY     32  28  86 E6        30.10
DAUPHIN        SUNNY     36  32  87 N8        30.03F
ISLAND LAKE    MOSUNNY   34  32  93 SE10      30.22R
PILOT MOUND      N/A     37  30  75 SE15        N/A
THE PAS        CLOUDY    39  34  81 SE13      29.97F
THOMPSON       PTSUNNY   36  30  80 SE3       30.08F
WINNIPEG       MOSUNNY   41  28  60 SE14      30.17F
CHURCHILL      PTSUNNY   18  12  79 N6        30.29S WCI   9
GILLAM         FOG       27  27 100 E7        30.21R VSB 1/8 WCI  19
$$
                ***SASKATCHEWAN***

CITY           SKY/WX    TMP DP  RH WIND       PRES   REMARKS
ESTEVAN        PTCLDY    45  28  53 SE12      29.97F
KINDERSLEY     MOCLDY    37  34  87 NW15G22   30.05R
LLOYDMINSTER   MOCLDY    37  32  81 NW18G26   29.99R
PRINCE ALBERT  PTCLDY    37  32  81 CALM      29.82S
REGINA         MOCLDY    43  32  65 S14       29.90F
YORKTON        MOSUNNY   39  32  75 S18G25    29.90F
N. BATTLEFORD  CLEAR     39  36  87 W14G23    29.98R
LA RONGE       LGT RAIN  39  37  93 E7        29.87F
SASKATOON      MOCLDY    41  37  87 NW22G29   29.91R
SWIFT CURRENT  CLEAR     41  37  87 NW15      29.98R
$$
NOTE: THESE ARE AUTOMATED STATIONS WITH LIMITED QUALITY CONTROL
      "FAIR" INDICATES FEW OR NO CLOUDS BELOW 12,000 FEET WITH NO
      SIGNIFICANT WEATHER AND/OR OBSTRUCTIONS TO VISIBILITY.
      SKY/WX - SKY CONDITION AND SIGNIFICANT WEATHER.
      TMP - AIR TEMPERATURE.    DP   - DEWPOINT TEMPERATURE.
      RH  - RELATIVE HUMIDITY.  PRES - PRESSURE.
      HX  - HEAT INDEX.         WCI  - WIND CHILL INDEX.
$



USA.gov is the U.S. government's official web portal to all federal, state and local government web resources and services.